| time (UTC) | temp F | wind direction | speed MPH | gust MPH | rain 1hr in | rain 24hr in | rain mn in | humidity % | barometer mb |
| 20260505050727 | 78 | 214 | 1.0 | 1.0 | 0.00 | 0.00 | 0.00 | 92 | 1016.7 |
| 20260505050225 | 78 | 205 | 1.0 | 1.0 | 0.00 | 0.00 | 0.00 | 92 | 1016.7 |
| 20260505041654 | 79 | 190 | 0.0 | 0.0 | 0.00 | 0.00 | 0.00 | 91 | 1017.1 |
| 20260505041152 | 79 | 185 | 1.0 | 1.0 | 0.00 | 0.00 | 0.00 | 91 | 1017.2 |
| 20260505040649 | 79 | 201 | 1.0 | 1.0 | 0.00 | 0.00 | 0.00 | 91 | 1017.3 |
| 20260505040146 | 79 | 209 | 0.0 | 0.0 | 0.00 | 0.00 | 0.00 | 91 | 1017.3 |
| 20260505035642 | 79 | 124 | 0.0 | 1.0 | 0.00 | 0.00 | 0.00 | 91 | 1017.4 |
| 20260505035138 | 79 | 122 | 1.0 | 1.0 | 0.00 | 0.00 | 0.00 | 91 | 1017.5 |
| 20260505034635 | 79 | 179 | 0.0 | 1.0 | 0.00 | 0.00 | 0.00 | 90 | 1017.7 |
| 20260505034132 | 79 | 179 | 1.0 | 2.0 | 0.00 | 0.00 | 0.00 | 90 | 1017.7 |
| 20260505033628 | 80 | 208 | 1.0 | 1.0 | 0.00 | 0.00 | 0.00 | 90 | 1017.7 |
| 20260505033127 | 80 | 208 | 2.0 | 2.0 | 0.00 | 0.00 | 0.00 | 90 | 1017.8 |
| 20260505032625 | 80 | 208 | 2.0 | 2.0 | 0.00 | 0.00 | 0.00 | 90 | 1017.7 |
| 20260505032121 | 80 | 219 | 1.0 | 2.0 | 0.00 | 0.00 | 0.00 | 90 | 1017.7 |
| 20260505031618 | 80 | 94 | 1.0 | 1.0 | 0.00 | 0.00 | 0.00 | 90 | 1017.8 |
| 20260505031114 | 80 | 130 | 1.0 | 2.0 | 0.00 | 0.00 | 0.00 | 90 | 1017.7 |
| 20260505030612 | 80 | 172 | 1.0 | 1.0 | 0.00 | 0.00 | 0.00 | 90 | 1017.6 |
| 20260505030107 | 80 | 174 | 1.0 | 1.0 | 0.00 | 0.00 | 0.00 | 89 | 1017.5 |
| 20260505025602 | 80 | 196 | 0.0 | 1.0 | 0.00 | 0.00 | 0.00 | 90 | 1017.6 |
| 20260505025057 | 80 | 96 | 1.0 | 1.0 | 0.00 | 0.00 | 0.00 | 90 | 1017.5 |
| 20260505024553 | 80 | 197 | 1.0 | 1.0 | 0.00 | 0.00 | 0.00 | 89 | 1017.6 |
| 20260505024051 | 80 | 194 | 1.0 | 1.0 | 0.00 | 0.00 | 0.00 | 89 | 1017.6 |
| 20260505023548 | 80 | 210 | 1.0 | 1.0 | 0.00 | 0.00 | 0.00 | 89 | 1017.7 |
| 20260505023045 | 80 | 171 | 3.0 | 3.0 | 0.00 | 0.00 | 0.00 | 89 | 1017.5 |
| 20260505022543 | 80 | 183 | 2.0 | 2.0 | 0.00 | 0.00 | 0.00 | 89 | 1017.6 |
| 20260505022040 | 80 | 177 | 1.0 | 1.0 | 0.00 | 0.00 | 0.00 | 89 | 1017.4 |
| 20260505021536 | 80 | 135 | 1.0 | 1.0 | 0.00 | 0.00 | 0.00 | 89 | 1017.5 |
| 20260505021033 | 80 | 144 | 3.0 | 3.0 | 0.00 | 0.00 | 0.00 | 88 | 1017.5 |
| 20260505020527 | 80 | 139 | 1.0 | 2.0 | 0.00 | 0.00 | 0.00 | 88 | 1017.4 |
| 20260505020024 | 81 | 176 | 1.0 | 1.0 | 0.00 | 0.00 | 0.00 | 87 | 1017.3 |
| 20260505015521 | 81 | 94 | 1.0 | 2.0 | 0.00 | 0.00 | 0.00 | 87 | 1017.4 |
| 20260505015018 | 81 | 84 | 2.0 | 2.0 | 0.00 | 0.00 | 0.00 | 87 | 1017.3 |
| 20260505014515 | 81 | 122 | 2.0 | 2.0 | 0.00 | 0.00 | 0.00 | 87 | 1017.2 |
| 20260505014013 | 81 | 132 | 1.0 | 2.0 | 0.00 | 0.00 | 0.00 | 86 | 1017.2 |
| 20260505013509 | 81 | 93 | 1.0 | 2.0 | 0.00 | 0.00 | 0.00 | 86 | 1017.1 |
| 20260505013007 | 81 | 62 | 3.0 | 3.0 | 0.00 | 0.00 | 0.00 | 86 | 1017.1 |
| 20260505012505 | 81 | 72 | 1.0 | 1.0 | 0.00 | 0.00 | 0.00 | 86 | 1017.0 |
| 20260505012001 | 81 | 188 | 2.0 | 3.0 | 0.00 | 0.00 | 0.00 | 86 | 1016.9 |
| 20260505011457 | 81 | 155 | 2.0 | 2.0 | 0.00 | 0.00 | 0.00 | 85 | 1016.9 |
| 20260505010954 | 81 | 109 | 4.0 | 5.0 | 0.00 | 0.00 | 0.00 | 85 | 1016.9 |
| 20260505010450 | 82 | 74 | 3.0 | 3.0 | 0.00 | 0.00 | 0.00 | 84 | 1016.7 |
| 20260505005946 | 82 | 154 | 3.0 | 3.0 | 0.00 | 0.00 | 0.00 | 83 | 1016.6 |
| 20260505005443 | 82 | 144 | 3.0 | 3.0 | 0.00 | 0.00 | 0.00 | 83 | 1016.6 |
| 20260505004940 | 82 | 161 | 2.0 | 3.0 | 0.00 | 0.00 | 0.00 | 83 | 1016.7 |
| 20260505004436 | 82 | 86 | 2.0 | 2.0 | 0.00 | 0.00 | 0.00 | 83 | 1016.6 |
| 20260505003934 | 82 | 128 | 3.0 | 3.0 | 0.00 | 0.00 | 0.00 | 82 | 1016.7 |
| 20260505003431 | 82 | 95 | 1.0 | 1.0 | 0.00 | 0.00 | 0.00 | 82 | 1016.6 |
| 20260505002927 | 82 | 105 | 3.0 | 3.0 | 0.00 | 0.00 | 0.00 | 82 | 1016.5 |
| 20260505002423 | 82 | 186 | 2.0 | 2.0 | 0.00 | 0.00 | 0.00 | 82 | 1016.6 |
| 20260505001922 | 82 | 181 | 2.0 | 2.0 | 0.00 | 0.00 | 0.00 | 81 | 1016.5 |
| 20260505001419 | 82 | 130 | 3.0 | 3.0 | 0.00 | 0.00 | 0.00 | 81 | 1016.5 |
| 20260505000916 | 82 | 118 | 1.0 | 1.0 | 0.00 | 0.00 | 0.00 | 81 | 1016.4 |
| 20260505000414 | 83 | 162 | 2.0 | 2.0 | 0.00 | 0.00 | 0.00 | 80 | 1016.4 |
| 20260504235911 | 83 | 143 | 1.0 | 2.0 | 0.00 | 0.00 | 0.00 | 80 | 1016.3 |
| 20260504235408 | 83 | 166 | 3.0 | 3.0 | 0.00 | 0.00 | 0.00 | 80 | 1016.3 |
| 20260504234904 | 83 | 123 | 2.0 | 2.0 | 0.00 | 0.00 | 0.00 | 79 | 1016.3 |
| 20260504234402 | 83 | 80 | 5.0 | 7.0 | 0.00 | 0.00 | 0.00 | 79 | 1016.3 |
| 20260504233858 | 83 | 182 | 3.0 | 5.0 | 0.00 | 0.00 | 0.00 | 79 | 1016.4 |
| 20260504233354 | 83 | 97 | 3.0 | 3.0 | 0.00 | 0.00 | 0.00 | 79 | 1016.4 |
| 20260504232850 | 83 | 116 | 3.0 | 5.0 | 0.00 | 0.00 | 0.00 | 79 | 1016.2 |
| 20260504232348 | 83 | 143 | 3.0 | 3.0 | 0.00 | 0.00 | 0.00 | 79 | 1016.3 |
| 20260504231844 | 83 | 168 | 2.0 | 2.0 | 0.00 | 0.00 | 0.00 | 79 | 1016.1 |
| 20260504231341 | 84 | 77 | 3.0 | 5.0 | 0.00 | 0.00 | 0.00 | 79 | 1016.2 |
| 20260504230837 | 84 | 175 | 4.0 | 5.0 | 0.00 | 0.00 | 0.00 | 79 | 1016.0 |
| 20260504230335 | 84 | 122 | 1.0 | 2.0 | 0.00 | 0.00 | 0.00 | 79 | 1015.8 |
| 20260504225834 | 84 | 139 | 4.0 | 6.0 | 0.00 | 0.00 | 0.00 | 78 | 1015.9 |
| 20260504225330 | 84 | 118 | 2.0 | 3.0 | 0.00 | 0.00 | 0.00 | 78 | 1015.6 |
| 20260504224827 | 84 | 165 | 4.0 | 6.0 | 0.00 | 0.00 | 0.00 | 78 | 1015.6 |
| 20260504224324 | 84 | 110 | 4.0 | 5.0 | 0.00 | 0.00 | 0.00 | 78 | 1015.6 |
| 20260504223821 | 84 | 128 | 5.0 | 7.0 | 0.00 | 0.00 | 0.00 | 77 | 1015.6 |
| 20260504223316 | 85 | 83 | 5.0 | 6.0 | 0.00 | 0.00 | 0.00 | 77 | 1015.5 |
| 20260504222813 | 85 | 141 | 2.0 | 3.0 | 0.00 | 0.00 | 0.00 | 76 | 1015.3 |
| 20260504222310 | 85 | 144 | 6.0 | 9.0 | 0.00 | 0.00 | 0.00 | 75 | 1015.3 |
| 20260504221809 | 86 | 173 | 5.0 | 6.0 | 0.00 | 0.00 | 0.00 | 74 | 1015.2 |
| 20260504221305 | 86 | 135 | 1.0 | 2.0 | 0.00 | 0.00 | 0.00 | 74 | 1015.3 |
| 20260504220802 | 87 | 66 | 1.0 | 2.0 | 0.00 | 0.00 | 0.00 | 73 | 1015.2 |
| 20260504220258 | 86 | 104 | 6.0 | 9.0 | 0.00 | 0.00 | 0.00 | 72 | 1015.0 |
| 20260504215756 | 86 | 194 | 4.0 | 5.0 | 0.00 | 0.00 | 0.00 | 72 | 1014.8 |
| 20260504215252 | 87 | 163 | 5.0 | 8.0 | 0.00 | 0.00 | 0.00 | 71 | 1014.8 |
| 20260504214748 | 87 | 143 | 3.0 | 5.0 | 0.00 | 0.00 | 0.00 | 71 | 1014.7 |
| 20260504214245 | 88 | 161 | 5.0 | 6.0 | 0.00 | 0.00 | 0.00 | 70 | 1014.9 |
| 20260504213741 | 88 | 104 | 6.0 | 8.0 | 0.00 | 0.00 | 0.00 | 71 | 1014.7 |
| 20260504213232 | 87 | 83 | 6.0 | 8.0 | 0.00 | 0.00 | 0.00 | 71 | 1014.5 |
| 20260504212729 | 87 | 109 | 4.0 | 7.0 | 0.00 | 0.00 | 0.00 | 71 | 1014.5 |
| 20260504212225 | 88 | 122 | 6.0 | 8.0 | 0.00 | 0.00 | 0.00 | 70 | 1014.5 |
| 20260504211723 | 87 | 183 | 8.0 | 9.0 | 0.00 | 0.00 | 0.00 | 71 | 1014.3 |
| 20260504211213 | 88 | 161 | 3.0 | 6.0 | 0.00 | 0.00 | 0.00 | 70 | 1014.6 |
| 20260504210711 | 88 | 102 | 2.0 | 2.0 | 0.00 | 0.00 | 0.00 | 70 | 1014.5 |
| 20260504210208 | 88 | 101 | 10.0 | 13.0 | 0.00 | 0.00 | 0.00 | 70 | 1014.5 |
| 20260504205705 | 89 | 162 | 4.0 | 6.0 | 0.00 | 0.00 | 0.00 | 69 | 1014.2 |
| 20260504205202 | 89 | 162 | 4.0 | 6.0 | 0.00 | 0.00 | 0.00 | 69 | 1014.2 |
| 20260504204701 | 88 | 200 | 4.0 | 5.0 | 0.00 | 0.00 | 0.00 | 69 | 1014.4 |
| 20260504204159 | 89 | 95 | 5.0 | 7.0 | 0.00 | 0.00 | 0.00 | 70 | 1014.2 |
| 20260504203657 | 88 | 159 | 4.0 | 6.0 | 0.00 | 0.00 | 0.00 | 70 | 1014.2 |
| 20260504203154 | 89 | 140 | 8.0 | 13.0 | 0.00 | 0.00 | 0.00 | 69 | 1014.2 |
| 20260504202649 | 89 | 170 | 5.0 | 6.0 | 0.00 | 0.00 | 0.00 | 71 | 1014.1 |
| 20260504202146 | 89 | 166 | 3.0 | 3.0 | 0.00 | 0.00 | 0.00 | 71 | 1014.1 |
| 20260504201643 | 89 | 114 | 6.0 | 7.0 | 0.00 | 0.00 | 0.00 | 71 | 1013.9 |
| 20260504201141 | 89 | 122 | 6.0 | 8.0 | 0.00 | 0.00 | 0.00 | 70 | 1014.1 |
| 20260504200638 | 89 | 128 | 5.0 | 7.0 | 0.00 | 0.00 | 0.00 | 71 | 1014.2 |
| 20260504200134 | 89 | 168 | 5.0 | 8.0 | 0.00 | 0.00 | 0.00 | 70 | 1014.2 |
| 20260504195630 | 89 | 132 | 6.0 | 8.0 | 0.00 | 0.00 | 0.00 | 70 | 1014.3 |
| 20260504195127 | 89 | 181 | 7.0 | 10.0 | 0.00 | 0.00 | 0.00 | 69 | 1014.3 |
| 20260504194624 | 89 | 133 | 6.0 | 9.0 | 0.00 | 0.00 | 0.00 | 70 | 1014.6 |
| 20260504194120 | 89 | 142 | 9.0 | 10.0 | 0.00 | 0.00 | 0.00 | 70 | 1014.3 |
| 20260504193616 | 89 | 180 | 7.0 | 9.0 | 0.00 | 0.00 | 0.00 | 69 | 1014.3 |
| 20260504193115 | 89 | 123 | 7.0 | 8.0 | 0.00 | 0.00 | 0.00 | 69 | 1014.3 |
| 20260504192612 | 89 | 174 | 4.0 | 5.0 | 0.00 | 0.00 | 0.00 | 69 | 1014.5 |
| 20260504192110 | 89 | 104 | 9.0 | 11.0 | 0.00 | 0.00 | 0.00 | 70 | 1014.5 |
| 20260504191609 | 90 | 150 | 7.0 | 9.0 | 0.00 | 0.00 | 0.00 | 68 | 1014.6 |
| 20260504191104 | 90 | 124 | 7.0 | 9.0 | 0.00 | 0.00 | 0.00 | 68 | 1014.6 |
| 20260504190600 | 91 | 99 | 5.0 | 6.0 | 0.00 | 0.00 | 0.00 | 66 | 1014.5 |
| 20260504190056 | 91 | 116 | 4.0 | 5.0 | 0.00 | 0.00 | 0.00 | 65 | 1014.5 |
| 20260504185554 | 91 | 107 | 5.0 | 7.0 | 0.00 | 0.00 | 0.00 | 65 | 1014.4 |
| 20260504185050 | 90 | 151 | 5.0 | 7.0 | 0.00 | 0.00 | 0.00 | 65 | 1014.7 |
| 20260504184546 | 90 | 172 | 4.0 | 6.0 | 0.00 | 0.00 | 0.00 | 66 | 1014.8 |
| 20260504184041 | 91 | 172 | 8.0 | 10.0 | 0.00 | 0.00 | 0.00 | 66 | 1015.0 |
| 20260504183538 | 91 | 123 | 8.0 | 10.0 | 0.00 | 0.00 | 0.00 | 65 | 1015.1 |
| 20260504183037 | 91 | 104 | 9.0 | 11.0 | 0.00 | 0.00 | 0.00 | 64 | 1014.8 |
| 20260504182533 | 91 | 78 | 5.0 | 7.0 | 0.00 | 0.00 | 0.00 | 64 | 1015.1 |
| 20260504182031 | 91 | 111 | 4.0 | 5.0 | 0.00 | 0.00 | 0.00 | 65 | 1015.0 |
| 20260504181527 | 91 | 105 | 8.0 | 10.0 | 0.00 | 0.00 | 0.00 | 64 | 1015.2 |
| 20260504181026 | 90 | 111 | 3.0 | 3.0 | 0.00 | 0.00 | 0.00 | 65 | 1014.9 |
| 20260504180524 | 91 | 103 | 7.0 | 9.0 | 0.00 | 0.00 | 0.00 | 65 | 1015.1 |
| 20260504180023 | 92 | 81 | 4.0 | 6.0 | 0.00 | 0.00 | 0.00 | 63 | 1015.1 |
| 20260504175520 | 91 | 91 | 5.0 | 6.0 | 0.00 | 0.00 | 0.00 | 63 | 1015.2 |
| 20260504175017 | 90 | 183 | 5.0 | 6.0 | 0.00 | 0.00 | 0.00 | 64 | 1015.4 |
| 20260504174515 | 90 | 128 | 5.0 | 7.0 | 0.00 | 0.00 | 0.00 | 63 | 1015.5 |
| 20260504174011 | 91 | 105 | 5.0 | 8.0 | 0.00 | 0.00 | 0.00 | 62 | 1015.4 |
| 20260504173508 | 90 | 121 | 6.0 | 7.0 | 0.00 | 0.00 | 0.00 | 61 | 1015.5 |
| 20260504173006 | 90 | 178 | 6.0 | 8.0 | 0.00 | 0.00 | 0.00 | 62 | 1015.6 |
| 20260504172501 | 89 | 203 | 3.0 | 7.0 | 0.00 | 0.00 | 0.00 | 63 | 1015.7 |
| 20260504171958 | 89 | 105 | 9.0 | 10.0 | 0.00 | 0.00 | 0.00 | 64 | 1015.9 |
| 20260504171455 | 89 | 85 | 7.0 | 10.0 | 0.00 | 0.00 | 0.00 | 63 | 1015.6 |
| 20260504170952 | 89 | 148 | 5.0 | 6.0 | 0.00 | 0.00 | 0.00 | 64 | 1015.8 |
| 20260504170448 | 90 | 188 | 4.0 | 6.0 | 0.00 | 0.00 | 0.00 | 61 | 1016.0 |
| 20260504160408 | 89 | 172 | 6.0 | 9.0 | 0.00 | 0.00 | 0.00 | 60 | 1016.8 |
| 20260504150832 | 88 | 190 | 7.0 | 8.0 | 0.00 | 0.00 | 0.00 | 65 | 1017.1 |
| 20260504150328 | 88 | 143 | 4.0 | 6.0 | 0.00 | 0.00 | 0.00 | 66 | 1017.1 |
| 20260504141258 | 86 | 147 | 4.0 | 5.0 | 0.00 | 0.00 | 0.00 | 75 | 1017.1 |
| 20260504140755 | 87 | 174 | 6.0 | 7.0 | 0.00 | 0.00 | 0.00 | 74 | 1017.0 |
| 20260504140250 | 86 | 127 | 4.0 | 5.0 | 0.00 | 0.00 | 0.00 | 76 | 1017.0 |
| 20260504130720 | 84 | 148 | 10.0 | 16.0 | 0.00 | 0.00 | 0.00 | 79 | 1017.1 |
| 20260504130215 | 84 | 96 | 9.0 | 13.0 | 0.00 | 0.00 | 0.00 | 79 | 1017.3 |
| 20260504120139 | 82 | 95 | 6.0 | 8.0 | 0.00 | 0.00 | 0.00 | 85 | 1017.7 |
| 20260504110607 | 79 | 178 | 1.0 | 1.0 | 0.00 | 0.00 | 0.00 | 88 | 1017.2 |
| 20260504100528 | 76 | 207 | 0.0 | 0.0 | 0.00 | 0.00 | 0.00 | 94 | 1016.9 |
| 20260504081921 | 76 | 217 | 1.0 | 1.0 | 0.00 | 0.00 | 0.00 | 94 | 1016.0 |
| 20260504081418 | 76 | 230 | 1.0 | 1.0 | 0.00 | 0.00 | 0.00 | 94 | 1016.0 |
| 20260504080914 | 76 | 166 | 1.0 | 1.0 | 0.00 | 0.00 | 0.00 | 94 | 1016.1 |
| 20260504080411 | 76 | 200 | 1.0 | 1.0 | 0.00 | 0.00 | 0.00 | 94 | 1016.0 |
| 20260504070339 | 77 | 127 | 1.0 | 1.0 | 0.00 | 0.00 | 0.00 | 92 | 1016.0 |